Regional Weather Roundup
Issued by NWS

Home | Current Version | Previous Version | Graphics & Text | Print | Product List | Glossary On
Versions: 1 2 3 4 5 6 7 8 9 10 11 12 13 14 15 16 17 18 19 20 21 22 23 24 25 26 27 28 29 30 31 32 33 34 35 36 37 38 39 40 41 42 43 44 45 46 47 48 49 50
000
ASUS43 KDMX 242203
RWRIA

WEATHER ROUNDUP FOR IOWA
NATIONAL WEATHER SERVICE DES MOINES IA
500 PM CDT WED AUG 24 2016

NOTE: "FAIR" INDICATES FEW OR NO CLOUDS BELOW 12,000 FEET WITH NO
SIGNIFICANT WEATHER AND/OR OBSTRUCTIONS TO VISIBILITY.

* - THESE STATIONS ARE NOT NWS STATIONS...THUS NOT UNDER NWS
QUALITY CONTROL.  THEY ALSO DO NOT REPORT WEATHER SUCH
AS PRECIPITATION OR FOG.

IAZ001>003-012>014-020>022-031>034-043>046-242300-
   NORTHWEST IOWA

CITY           SKY/WX    TMP DP  RH WIND       PRES   REMARKS
CARROLL *      CLOUDY    75  64  69 NW6       30.02R
CHEROKEE *     CLOUDY    74  60  63 NW3       30.04F
DENISON *      CLOUDY    73  64  73 NW6       30.02R
LE MARS *      CLOUDY    73  63  68 CALM      30.07S
ORANGE CITY *  CLOUDY    72  63  73 CALM      30.06R
SHELDON *      CLOUDY    73  63  68 NW6       30.04S
SIOUX CITY     CLOUDY    72  62  71 NW8       30.06S
SPENCER        CLOUDY    76  61  59 W8        30.04S
STORM LAKE *   CLOUDY    73  64  73 NW8       30.05S
$$

IAZ055>058-069>071-079>083-090>094-242300-
   SOUTHWEST IOWA

CITY           SKY/WX    TMP DP  RH WIND       PRES   REMARKS
ATLANTIC *     CLOUDY    73  64  73 SW6       30.05R
AUDUBON *      CLOUDY    73  64  73 NW5       30.05R
CLARINDA *       N/A     77  72  83 MISG      30.03R
COUNCIL BLFS * CLOUDY    73  66  78 N5        30.04F
CRESTON *      CLOUDY    77  72  83 NW16      30.03R
HARLAN  *      CLOUDY    72  63  73 N3        30.08R
LAMONI         CLOUDY    77  72  84 SW5       29.99F
RED OAK *      LGT RAIN  72  72 100 NE14G22   30.00F
SHENANDOAH *   CLOUDY    75 -35   1 VRB7      30.03R
$$

IAZ047>049-059>061-072>074-084-242300-
   CENTRAL IOWA

CITY           SKY/WX    TMP DP  RH WIND       PRES   REMARKS
AMES           CLOUDY    80  73  79 W3        29.98R HX  84
ANKENY *         N/A    N/A N/A N/A MISG        N/A
BOONE *        CLOUDY    79  72  78 CALM      29.98R HX  82
CHARITON *       N/A     79  73  83 MISG      29.98S HX  82
DES MOINES     CLOUDY    81  71  71 SW8       29.97R HX  85
GRINNELL*      CLOUDY    79  71  77 NW7       29.99R HX  82
KNOXVILLE *    CLOUDY    81  72  74 SW5       29.96S HX  84
MARSHALLTOWN   CLOUDY    77  73  87 NW8       29.97S
NEWTON *       CLOUDY    79  73  83 NW5       29.97S HX  82
PERRY *          N/A     78  71  79 NW9       29.99R
$$

IAZ004>006-015-016-023>025-035-036-242300-
   NORTH CENTRAL IOWA

CITY           SKY/WX    TMP DP  RH WIND       PRES   REMARKS
ALGONA *       CLOUDY    77  63  61 N6        30.02R
ESTHERVILLE    CLOUDY    73  64  73 NW6       30.03R
FORT DODGE *   CLOUDY    77  63  61 N5        30.01S
MASON CITY     CLOUDY    77  65  66 NW8       30.01R
FOREST CITY *    N/A    N/A N/A N/A MISG        N/A
WEBSTER CITY * CLOUDY    77  68  73 N9        29.98R
IOWA FALLS *   PTSUNNY   78  71  80 NW3       30.00S HX  80
$$

IAZ007>011-017>019-026>030-037>042-050>054-066-242300-
   NORTHEAST IOWA

CITY           SKY/WX    TMP DP  RH WIND       PRES   REMARKS
CEDAR RAPIDS   PTSUNNY   82  73  74 W13G20    29.95R HX  87
CHARLES CITY * CLOUDY    79  73  83 W10       29.98R HX  82
CLINTON *      SUNNY     85  72  65 W13       29.95R HX  91
DECORAH *      PTSUNNY   79  72  78 NW9       29.95R HX  82
DUBUQUE        PTSUNNY   82  71  69 W13       29.95R HX  86
MONTICELLO *   PTSUNNY   84  73  70 W9G17     29.94R HX  91
OELWEIN *      CLOUDY    77  72  83 W9        29.97R
WATERLOO       CLOUDY    76  70  82 W7        29.96S
$$

IAZ064-065-067-068-078-242300-
   EAST CENTRAL IOWA

CITY           SKY/WX    TMP DP  RH WIND       PRES   REMARKS
DAVENPORT      SUNNY     85  68  56 SW12      29.96R HX  88
IOWA CITY      CLOUDY    83  70  64 W10       29.97R HX  87
MT. PLEASANT * CLOUDY    86  74  68 SW9       29.98R HX  94
MUSCATINE *    MOSUNNY   86  70  58 SW10G18   29.96R HX  90
QUAD CITIES    MOSUNNY   86  70  58 SW9       29.95R HX  90
$$

IAZ062-063-075>077-085>089-095>099-242300-
   SOUTHEAST IOWA

CITY           SKY/WX    TMP DP  RH WIND       PRES   REMARKS
BURLINGTON     MOSUNNY   82  75  79 SW5       29.98R HX  89
FAIRFIELD *    CLOUDY    84  72  65 SW6       29.98R HX  89
FORT MADISON *   N/A     82  73  74 W3        30.00R HX  88
KEOKUK *       CLOUDY    84  75  74 W7        29.99R HX  92
OSKALOOSA *    CLOUDY    80  73  78 SW6       29.98S HX  84
CENTERVILLE *  LGT RAIN  77  73  88 CALM      30.00F
OTTUMWA        CLOUDY    82  71  69 SW8       29.97R HX  86
WASHINGTON *   CLOUDY    82  73  74 SW8       29.98S HX  88
$$

ABBREVIATIONS USED IN REMARKS
   TC - TEMPERATURES IN CELSIUS
  WCI - WIND CHILL INDEX
   HX - HEAT INDEX
  VSB - VISIBILITY
$$





USA.gov is the U.S. government's official web portal to all federal, state and local government web resources and services.